Location: Bas-Clignon
(44.2000°N, 6.6333°E)
Time: 13:33:57
(UTC+00:00)

Cosmos 1943 Rocket - Pass Details

Date: 03 February 2023
Orbit: 811 x 844 km, 71.0° (Epoch: 19 March)

Event Time Altitude Azimuth Distance (km) Brightness Sun altitude
Rises 18:53:29 0° 345° (NNW) 3,414 5.5 -23.1°
Reaches altitude 10° 18:57:33 10° 14° (NNE) 2,474 4.5 -23.9°
Enters shadow 18:57:49 11° 16° (NNE) 2,436 4.4 -23.9°
